Wetterdaten: aktuell Dienstag, 30.05.2023 05:56
Datum Zeit Temp.Rudling Temp. 2m Temp. 5cm Temp. Gh Feuchte Rud. Feuchte 2m Feuchte GH Luftdruck Regen Wind Richtung Richtung Taupunkt Windchill Windben
30.05.2023 05:56 11,5 C 13,7 C 12,1 C 16,8 C 75 % 57 % 87 % 1019,2 hPa 0,0 l/m 0,2 km/h (0 Bft) N-NO 22 5,3 C 13,7 C 0,0 km/h (0 Bft)
30.05.2023 05:54 11,4 C 13,6 C 12,1 C 16,7 C 75 % 57 % 87 % 1019,2 hPa 0,0 l/m 0,2 km/h (0 Bft) NO 45 5,2 C 13,6 C 0,0 km/h (0 Bft)
30.05.2023 05:52 11,4 C 13,6 C 12,2 C 16,7 C 75 % 57 % 87 % 1019,2 hPa 0,0 l/m 0,3 km/h (0 Bft) O-NO 67 5,2 C 13,6 C 2,4 km/h (1 Bft)
30.05.2023 05:50 11,4 C 13,5 C 12,4 C 16,6 C 75 % 57 % 87 % 1019,2 hPa 0,0 l/m 0,2 km/h (0 Bft) N-NO 22 5,2 C 13,5 C 2,4 km/h (1 Bft)
30.05.2023 05:48 11,4 C 13,4 C 12,1 C 16,5 C 75 % 57 % 87 % 1019,2 hPa 0,0 l/m 0,2 km/h (0 Bft) O-NO 67 5,1 C 13,4 C 0,0 km/h (0 Bft)
30.05.2023 05:46 11,3 C 13,4 C 11,9 C 16,5 C 75 % 57 % 87 % 1019,2 hPa 0,0 l/m 0,2 km/h (0 Bft) N-NO 22 5,1 C 13,4 C 2,4 km/h (1 Bft)
30.05.2023 05:44 11,3 C 13,4 C 11,6 C 16,4 C 75 % 57 % 87 % 1019,2 hPa 0,0 l/m 0,2 km/h (0 Bft) O-NO 67 5,1 C 13,4 C 2,4 km/h (1 Bft)
30.05.2023 05:42 11,3 C 13,4 C 11,6 C 16,3 C 75 % 57 % 87 % 1019,2 hPa 0,0 l/m 0,0 km/h (0 Bft) O-NO 67 5,1 C 13,4 C 0,0 km/h (0 Bft)
30.05.2023 05:40 11,3 C 13,4 C 11,7 C 16,3 C 75 % 57 % 87 % 1019,2 hPa 0,0 l/m 0,0 km/h (0 Bft) NO 45 5,1 C 13,4 C 0,0 km/h (0 Bft)
30.05.2023 05:38 11,3 C 13,4 C 11,6 C 16,3 C 75 % 57 % 87 % 1019,1 hPa 0,0 l/m 0,0 km/h (0 Bft) N-NW 337 5,1 C 13,4 C 0,0 km/h (0 Bft)
30.05.2023 05:36 11,3 C 13,4 C 11,6 C 16,2 C 74 % 57 % 87 % 1019,1 hPa 0,0 l/m 0,0 km/h (0 Bft) NO 45 5,1 C 13,4 C 0,0 km/h (0 Bft)
30.05.2023 05:34 11,3 C 13,4 C 11,1 C 16,2 C 74 % 57 % 87 % 1019,1 hPa 0,0 l/m 0,0 km/h (0 Bft) N-NW 337 5,1 C 13,4 C 0,0 km/h (0 Bft)
30.05.2023 05:32 11,3 C 13,5 C 11,0 C 16,1 C 74 % 57 % 87 % 1019,1 hPa 0,0 l/m 0,0 km/h (0 Bft) N-NO 22 5,2 C 13,5 C 0,0 km/h (0 Bft)
30.05.2023 05:30 11,3 C 13,5 C 10,8 C 16,1 C 74 % 57 % 87 % 1019,1 hPa 0,0 l/m 0,0 km/h (0 Bft) N-NO 22 5,2 C 13,5 C 0,0 km/h (0 Bft)
30.05.2023 05:28 11,3 C 13,5 C 10,7 C 16,1 C 74 % 57 % 87 % 1019,1 hPa 0,0 l/m 0,0 km/h (0 Bft) NO 45 5,2 C 13,5 C 0,0 km/h (0 Bft)
30.05.2023 05:26 11,3 C 13,4 C 10,7 C 16,1 C 74 % 57 % 87 % 1019,1 hPa 0,0 l/m 0,0 km/h (0 Bft) O-NO 67 5,1 C 13,4 C 0,0 km/h (0 Bft)
30.05.2023 05:24 11,3 C 13,2 C 10,6 C 16,1 C 74 % 56 % 87 % 1019,1 hPa 0,0 l/m 0,0 km/h (0 Bft) N-NO 22 4,6 C 13,2 C 0,0 km/h (0 Bft)
30.05.2023 05:22 11,3 C 13,2 C 10,6 C 16,0 C 74 % 56 % 87 % 1019,1 hPa 0,0 l/m 0,0 km/h (0 Bft) N-NO 22 4,6 C 13,2 C 0,0 km/h (0 Bft)
30.05.2023 05:20 11,3 C 13,1 C 10,7 C 16,1 C 74 % 56 % 87 % 1019,1 hPa 0,0 l/m 0,0 km/h (0 Bft) NO 45 4,5 C 13,1 C 0,0 km/h (0 Bft)
30.05.2023 05:18 11,3 C 13,0 C 10,7 C 16,0 C 73 % 56 % 87 % 1018,9 hPa 0,0 l/m 0,0 km/h (0 Bft) NO 45 4,4 C 13,0 C 0,0 km/h (0 Bft)
30.05.2023 05:16 11,3 C 12,9 C 10,7 C 16,0 C 73 % 56 % 87 % 1018,9 hPa 0,0 l/m 0,0 km/h (0 Bft) N-NO 22 4,3 C 12,9 C 0,0 km/h (0 Bft)
30.05.2023 05:14 11,3 C 12,9 C 10,6 C 16,0 C 73 % 56 % 87 % 1018,9 hPa 0,0 l/m 0,0 km/h (0 Bft) N-NO 22 4,3 C 12,9 C 0,0 km/h (0 Bft)
30.05.2023 05:12 11,3 C 13,0 C 10,5 C 16,0 C 73 % 56 % 87 % 1018,9 hPa 0,0 l/m 0,0 km/h (0 Bft) N-NO 22 4,4 C 13,0 C 0,0 km/h (0 Bft)
30.05.2023 05:10 11,3 C 13,1 C 10,6 C 16,0 C 73 % 56 % 87 % 1018,9 hPa 0,0 l/m 0,0 km/h (0 Bft) W 270 4,5 C 13,1 C 0,0 km/h (0 Bft)
30.05.2023 05:08 11,3 C 13,1 C 10,3 C 16,0 C 73 % 56 % 87 % 1018,9 hPa 0,0 l/m 0,0 km/h (0 Bft) W 270 4,5 C 13,1 C 0,0 km/h (0 Bft)
30.05.2023 05:06 11,3 C 13,1 C 10,2 C 16,1 C 73 % 56 % 87 % 1018,9 hPa 0,0 l/m 0,0 km/h (0 Bft) N 360 4,5 C 13,1 C 0,0 km/h (0 Bft)
30.05.2023 05:04 11,3 C 13,2 C 10,6 C 16,0 C 73 % 55 % 87 % 1018,9 hPa 0,0 l/m 0,0 km/h (0 Bft) N-NO 22 4,4 C 13,2 C 0,0 km/h (0 Bft)
30.05.2023 05:02 11,4 C 13,2 C 10,7 C 16,1 C 73 % 55 % 87 % 1018,9 hPa 0,0 l/m 0,0 km/h (0 Bft) N-NO 22 4,4 C 13,2 C 0,0 km/h (0 Bft)
30.05.2023 05:00 11,4 C 13,3 C 10,8 C 16,1 C 73 % 55 % 87 % 1018,9 hPa 0,0 l/m 0,0 km/h (0 Bft) O-NO 67 4,5 C 13,3 C 0,0 km/h (0 Bft)
30.05.2023 04:58 11,4 C 13,2 C 10,7 C 16,1 C 73 % 55 % 86 % 1019,2 hPa 0,0 l/m 0,0 km/h (0 Bft) NO 45 4,4 C 13,2 C 0,0 km/h (0 Bft)
30.05.2023 04:56 11,4 C 13,2 C 10,5 C 16,1 C 73 % 55 % 86 % 1019,2 hPa 0,0 l/m 0,0 km/h (0 Bft) O 90 4,4 C 13,2 C 0,0 km/h (0 Bft)
30.05.2023 04:54 11,4 C 13,2 C 10,5 C 16,1 C 73 % 55 % 86 % 1019,2 hPa 0,0 l/m 0,0 km/h (0 Bft) O-NO 67 4,4 C 13,2 C 0,0 km/h (0 Bft)
30.05.2023 04:52 11,4 C 13,3 C 10,5 C 16,1 C 73 % 55 % 86 % 1019,2 hPa 0,0 l/m 0,0 km/h (0 Bft) NO 45 4,5 C 13,3 C 0,0 km/h (0 Bft)
30.05.2023 04:50 11,4 C 13,3 C 10,6 C 16,1 C 73 % 55 % 86 % 1019,2 hPa 0,0 l/m 0,0 km/h (0 Bft) O-NO 67 4,5 C 13,3 C 0,0 km/h (0 Bft)
30.05.2023 04:48 11,4 C 13,3 C 10,7 C 16,1 C 73 % 55 % 86 % 1019,2 hPa 0,0 l/m 0,0 km/h (0 Bft) N-NO 22 4,5 C 13,3 C 0,0 km/h (0 Bft)
30.05.2023 04:46 11,4 C 13,3 C 10,7 C 16,2 C 73 % 55 % 86 % 1019,2 hPa 0,0 l/m 0,0 km/h (0 Bft) N-NO 22 4,5 C 13,3 C 0,0 km/h (0 Bft)
30.05.2023 04:44 11,5 C 13,3 C 10,7 C 16,2 C 73 % 55 % 86 % 1019,2 hPa 0,0 l/m 0,0 km/h (0 Bft) NW 315 4,5 C 13,3 C 0,0 km/h (0 Bft)
30.05.2023 04:42 11,5 C 13,3 C 10,6 C 16,2 C 73 % 55 % 86 % 1019,2 hPa 0,0 l/m 0,0 km/h (0 Bft) NW 315 4,5 C 13,3 C 0,0 km/h (0 Bft)
30.05.2023 04:40 11,5 C 13,3 C 10,5 C 16,2 C 73 % 55 % 86 % 1019,2 hPa 0,0 l/m 0,0 km/h (0 Bft) N-NO 22 4,5 C 13,3 C 0,0 km/h (0 Bft)
30.05.2023 04:38 11,5 C 13,3 C 10,5 C 16,2 C 73 % 55 % 86 % 1019,0 hPa 0,0 l/m 0,0 km/h (0 Bft) N-NO 22 4,5 C 13,3 C 0,0 km/h (0 Bft)
30.05.2023 04:36 11,5 C 13,3 C 10,6 C 16,2 C 73 % 55 % 86 % 1019,0 hPa 0,0 l/m 0,0 km/h (0 Bft) W 270 4,5 C 13,3 C 0,0 km/h (0 Bft)
30.05.2023 04:34 11,5 C 13,4 C 10,9 C 16,2 C 73 % 55 % 86 % 1019,0 hPa 0,0 l/m 0,0 km/h (0 Bft) W-SW 247 4,5 C 13,4 C 0,0 km/h (0 Bft)
30.05.2023 04:32 11,5 C 13,5 C 11,8 C 16,3 C 73 % 55 % 86 % 1019,0 hPa 0,0 l/m 0,2 km/h (0 Bft) S 180 4,6 C 13,5 C 0,0 km/h (0 Bft)
30.05.2023 04:30 11,5 C 13,5 C 11,6 C 16,3 C 73 % 55 % 86 % 1019,0 hPa 0,0 l/m 0,2 km/h (0 Bft) S 180 4,6 C 13,5 C 0,0 km/h (0 Bft)
30.05.2023 04:28 11,5 C 13,6 C 11,5 C 16,3 C 73 % 55 % 86 % 1019,0 hPa 0,0 l/m 0,2 km/h (0 Bft) S-SO 157 4,7 C 13,6 C 0,0 km/h (0 Bft)
30.05.2023 04:26 11,5 C 13,5 C 11,2 C 16,3 C 73 % 55 % 86 % 1019,0 hPa 0,0 l/m 0,2 km/h (0 Bft) S-SO 157 4,6 C 13,5 C 0,0 km/h (0 Bft)
30.05.2023 04:24 11,5 C 13,6 C 11,4 C 16,3 C 73 % 55 % 86 % 1019,0 hPa 0,0 l/m 0,3 km/h (0 Bft) N-NW 337 4,7 C 13,6 C 2,9 km/h (1 Bft)
30.05.2023 04:22 11,5 C 13,6 C 11,7 C 16,3 C 73 % 55 % 86 % 1019,0 hPa 0,0 l/m 0,3 km/h (0 Bft) O-NO 67 4,7 C 13,6 C 2,9 km/h (1 Bft)
30.05.2023 04:20 11,5 C 13,6 C 11,6 C 16,3 C 73 % 55 % 86 % 1019,0 hPa 0,0 l/m 0,3 km/h (0 Bft) O-NO 67 4,7 C 13,6 C 0,0 km/h (0 Bft)
30.05.2023 04:18 11,5 C 13,5 C 11,5 C 16,4 C 73 % 55 % 86 % 1019,0 hPa 0,0 l/m 0,3 km/h (0 Bft) S 180 4,6 C 13,5 C 0,0 km/h (0 Bft)
30.05.2023 04:16 11,5 C 13,5 C 11,6 C 16,4 C 73 % 55 % 86 % 1019,0 hPa 0,0 l/m 0,5 km/h (0 Bft) S-SO 157 4,6 C 13,5 C 2,7 km/h (1 Bft)
30.05.2023 04:14 11,5 C 13,5 C 11,4 C 16,4 C 73 % 54 % 86 % 1019,0 hPa 0,0 l/m 0,3 km/h (0 Bft) SO 135 4,4 C 13,5 C 2,7 km/h (1 Bft)
30.05.2023 04:12 11,5 C 13,4 C 11,5 C 16,5 C 73 % 54 % 86 % 1019,0 hPa 0,0 l/m 0,3 km/h (0 Bft) O-NO 67 4,3 C 13,4 C 0,0 km/h (0 Bft)
30.05.2023 04:10 11,5 C 13,4 C 11,4 C 16,5 C 73 % 54 % 86 % 1019,0 hPa 0,0 l/m 0,2 km/h (0 Bft) NO 45 4,3 C 13,4 C 0,0 km/h (0 Bft)
30.05.2023 04:08 11,5 C 13,3 C 10,9 C 16,5 C 73 % 54 % 86 % 1019,0 hPa 0,0 l/m 0,2 km/h (0 Bft) SW 225 4,2 C 13,3 C 0,0 km/h (0 Bft)
30.05.2023 04:06 11,5 C 13,4 C 11,0 C 16,5 C 73 % 54 % 86 % 1019,0 hPa 0,0 l/m 0,2 km/h (0 Bft) S-SO 157 4,3 C 13,4 C 0,0 km/h (0 Bft)
30.05.2023 04:04 11,5 C 13,4 C 11,0 C 16,5 C 73 % 54 % 86 % 1019,0 hPa 0,0 l/m 0,0 km/h (0 Bft) S 180 4,3 C 13,4 C 0,0 km/h (0 Bft)
30.05.2023 04:02 11,5 C 13,4 C 10,8 C 16,5 C 73 % 54 % 86 % 1019,0 hPa 0,0 l/m 0,0 km/h (0 Bft) N-NO 22 4,3 C 13,4 C 0,0 km/h (0 Bft)
30.05.2023 04:00 11,5 C 13,4 C 10,5 C 16,5 C 73 % 53 % 86 % 1019,0 hPa 0,0 l/m 0,0 km/h (0 Bft) O-SO 112 4,0 C 13,4 C 0,0 km/h (0 Bft)
30.05.2023 03:58 11,5 C 13,4 C 10,2 C 16,5 C 73 % 53 % 86 % 1018,9 hPa 0,0 l/m 0,0 km/h (0 Bft) O 90 4,0 C 13,4 C 0,0 km/h (0 Bft)
30.05.2023 03:56 11,5 C 13,4 C 10,1 C 16,6 C 72 % 53 % 86 % 1018,9 hPa 0,0 l/m 0,0 km/h (0 Bft) O-SO 112 4,0 C 13,4 C 0,0 km/h (0 Bft)
30.05.2023 03:54 11,5 C 13,6 C 10,2 C 16,6 C 72 % 53 % 86 % 1018,9 hPa 0,0 l/m 0,0 km/h (0 Bft) O-NO 67 4,2 C 13,6 C 0,0 km/h (0 Bft)
30.05.2023 03:52 11,5 C 13,7 C 10,2 C 16,6 C 72 % 53 % 86 % 1018,9 hPa 0,0 l/m 0,0 km/h (0 Bft) O-NO 67 4,3 C 13,7 C 0,0 km/h (0 Bft)
30.05.2023 03:50 11,5 C 13,8 C 10,2 C 16,6 C 72 % 53 % 86 % 1018,9 hPa 0,0 l/m 0,0 km/h (0 Bft) SO 135 4,4 C 13,8 C 0,0 km/h (0 Bft)
30.05.2023 03:48 11,5 C 13,9 C 10,2 C 16,6 C 72 % 52 % 86 % 1018,9 hPa 0,0 l/m 0,0 km/h (0 Bft) N-NO 22 4,2 C 13,9 C 0,0 km/h (0 Bft)
30.05.2023 03:46 11,5 C 14,0 C 10,3 C 16,6 C 72 % 52 % 86 % 1018,9 hPa 0,0 l/m 0,0 km/h (0 Bft) O-NO 67 4,3 C 14,0 C 0,0 km/h (0 Bft)
30.05.2023 03:44 11,5 C 14,1 C 10,3 C 16,6 C 72 % 52 % 85 % 1018,9 hPa 0,0 l/m 0,0 km/h (0 Bft) O-NO 67 4,4 C 14,1 C 0,0 km/h (0 Bft)
30.05.2023 03:42 11,5 C 14,3 C 10,5 C 16,7 C 72 % 52 % 85 % 1018,9 hPa 0,0 l/m 0,0 km/h (0 Bft) O 90 4,6 C 14,3 C 0,0 km/h (0 Bft)
30.05.2023 03:40 11,5 C 14,4 C 10,5 C 16,6 C 72 % 52 % 85 % 1018,9 hPa 0,0 l/m 0,0 km/h (0 Bft) SW 225 4,7 C 14,4 C 0,0 km/h (0 Bft)
30.05.2023 03:38 11,5 C 14,5 C 10,7 C 16,7 C 72 % 52 % 85 % 1018,9 hPa 0,0 l/m 0,0 km/h (0 Bft) NO 45 4,8 C 14,5 C 0,0 km/h (0 Bft)
30.05.2023 03:36 11,6 C 14,7 C 10,8 C 16,7 C 72 % 52 % 85 % 1018,9 hPa 0,0 l/m 0,0 km/h (0 Bft) O-NO 67 5,0 C 14,7 C 0,0 km/h (0 Bft)
30.05.2023 03:34 11,6 C 14,9 C 11,0 C 16,6 C 72 % 51 % 85 % 1018,9 hPa 0,0 l/m 0,0 km/h (0 Bft) SO 135 4,9 C 14,9 C 0,0 km/h (0 Bft)
30.05.2023 03:32 11,6 C 15,0 C 11,1 C 16,7 C 72 % 51 % 85 % 1018,9 hPa 0,0 l/m 0,0 km/h (0 Bft) SO 135 4,9 C 15,0 C 0,0 km/h (0 Bft)
30.05.2023 03:30 11,7 C 15,2 C 11,4 C 16,7 C 72 % 51 % 85 % 1018,9 hPa 0,0 l/m 0,2 km/h (0 Bft) NO 45 5,1 C 15,2 C 2,7 km/h (1 Bft)
30.05.2023 03:28 11,8 C 15,2 C 10,9 C 16,7 C 71 % 51 % 85 % 1018,9 hPa 0,0 l/m 0,3 km/h (0 Bft) O-NO 67 5,1 C 15,2 C 2,7 km/h (1 Bft)
30.05.2023 03:26 11,8 C 15,2 C 10,9 C 16,7 C 71 % 51 % 85 % 1018,9 hPa 0,0 l/m 0,3 km/h (0 Bft) O-NO 67 5,1 C 15,2 C 2,7 km/h (1 Bft)
30.05.2023 03:24 11,8 C 15,2 C 10,9 C 16,7 C 71 % 51 % 85 % 1018,9 hPa 0,0 l/m 0,3 km/h (0 Bft) O-NO 67 5,1 C 15,2 C 2,7 km/h (1 Bft)
30.05.2023 03:22 11,8 C 15,2 C 10,9 C 16,7 C 71 % 51 % 85 % 1018,9 hPa 0,0 l/m 0,3 km/h (0 Bft) O-NO 67 5,1 C 15,2 C 2,7 km/h (1 Bft)
30.05.2023 03:20 11,8 C 15,2 C 10,9 C 16,7 C 71 % 51 % 85 % 1018,9 hPa 0,0 l/m 0,3 km/h (0 Bft) O-NO 67 5,1 C 15,2 C 2,7 km/h (1 Bft)
30.05.2023 03:18 11,8 C 15,0 C 11,0 C 16,7 C 71 % 51 % 85 % 1019,2 hPa 0,0 l/m 0,2 km/h (0 Bft) NO 45 4,9 C 15,0 C 0,0 km/h (0 Bft)
30.05.2023 03:16 11,8 C 15,0 C 10,9 C 16,7 C 71 % 51 % 85 % 1019,2 hPa 0,0 l/m 0,2 km/h (0 Bft) O-NO 67 4,9 C 15,0 C 0,0 km/h (0 Bft)
30.05.2023 03:14 11,8 C 15,0 C 10,9 C 16,7 C 71 % 51 % 85 % 1019,2 hPa 0,0 l/m 0,0 km/h (0 Bft) N-NO 22 4,9 C 15,0 C 0,0 km/h (0 Bft)
30.05.2023 03:12 11,9 C 14,9 C 11,0 C 16,7 C 71 % 51 % 85 % 1019,2 hPa 0,0 l/m 0,0 km/h (0 Bft) N-NO 22 4,9 C 14,9 C 0,0 km/h (0 Bft)
30.05.2023 03:10 11,9 C 14,9 C 11,3 C 16,7 C 71 % 51 % 85 % 1019,2 hPa 0,0 l/m 0,0 km/h (0 Bft) NO 45 4,9 C 14,9 C 0,0 km/h (0 Bft)
30.05.2023 03:08 11,9 C 14,9 C 11,5 C 16,7 C 71 % 51 % 85 % 1019,2 hPa 0,0 l/m 0,0 km/h (0 Bft) N-NO 22 4,9 C 14,9 C 0,0 km/h (0 Bft)
30.05.2023 03:06 11,9 C 14,8 C 11,8 C 16,8 C 70 % 51 % 85 % 1019,2 hPa 0,0 l/m 0,2 km/h (0 Bft) N-NO 22 4,8 C 14,8 C 0,0 km/h (0 Bft)
30.05.2023 03:04 12,0 C 14,7 C 12,0 C 16,8 C 70 % 51 % 85 % 1019,2 hPa 0,0 l/m 0,3 km/h (0 Bft) O 90 4,7 C 14,7 C 0,0 km/h (0 Bft)
30.05.2023 03:02 12,0 C 14,7 C 11,9 C 16,8 C 70 % 51 % 85 % 1019,2 hPa 0,0 l/m 0,8 km/h (0 Bft) N-NW 337 4,7 C 14,7 C 0,0 km/h (0 Bft)
30.05.2023 03:00 12,0 C 14,7 C 11,4 C 16,7 C 70 % 51 % 85 % 1019,2 hPa 0,0 l/m 1,3 km/h (1 Bft) N-NW 337 4,7 C 14,7 C 0,0 km/h (0 Bft)
30.05.2023 02:58 12,0 C 14,8 C 11,1 C 16,8 C 70 % 51 % 85 % 1019,4 hPa 0,0 l/m 1,6 km/h (1 Bft) N-NW 337 4,8 C 14,8 C 0,0 km/h (0 Bft)
30.05.2023 02:56 11,9 C 14,8 C 11,3 C 16,8 C 70 % 51 % 85 % 1019,4 hPa 0,0 l/m 1,9 km/h (1 Bft) NO 45 4,8 C 14,8 C 4,1 km/h (1 Bft)
30.05.2023 02:54 11,9 C 14,8 C 11,3 C 16,7 C 70 % 51 % 85 % 1019,4 hPa 0,0 l/m 1,9 km/h (1 Bft) W-NW 292 4,8 C 14,8 C 4,1 km/h (1 Bft)
30.05.2023 02:52 11,9 C 14,8 C 11,1 C 16,8 C 70 % 51 % 85 % 1019,4 hPa 0,0 l/m 1,4 km/h (1 Bft) NW 315 4,8 C 14,8 C 6,5 km/h (2 Bft)
30.05.2023 02:50 11,9 C 14,8 C 10,9 C 16,8 C 70 % 51 % 85 % 1019,4 hPa 0,0 l/m 1,1 km/h (1 Bft) N-NW 337 4,8 C 14,8 C 6,5 km/h (2 Bft)
30.05.2023 02:48 12,0 C 14,8 C 10,8 C 16,9 C 70 % 51 % 84 % 1019,4 hPa 0,0 l/m 0,6 km/h (0 Bft) NW 315 4,8 C 14,8 C 4,8 km/h (1 Bft)
30.05.2023 02:46 12,1 C 14,8 C 10,7 C 16,8 C 70 % 50 % 84 % 1019,4 hPa 0,0 l/m 0,3 km/h (0 Bft) NW 315 4,5 C 14,8 C 4,8 km/h (1 Bft)
30.05.2023 02:44 12,1 C 14,9 C 10,6 C 16,8 C 70 % 50 % 84 % 1019,4 hPa 0,0 l/m 0,2 km/h (0 Bft) N-NW 337 4,6 C 14,9 C 0,0 km/h (0 Bft)
30.05.2023 02:42 12,0 C 15,0 C 10,5 C 16,9 C 70 % 50 % 84 % 1019,4 hPa 0,0 l/m 0,5 km/h (0 Bft) NW 315 4,7 C 15,0 C 0,0 km/h (0 Bft)
30.05.2023 02:40 12,0 C 15,0 C 10,4 C 16,9 C 70 % 50 % 84 % 1019,4 hPa 0,0 l/m 0,5 km/h (0 Bft) NW 315 4,7 C 15,0 C 0,0 km/h (0 Bft)
30.05.2023 02:38 11,9 C 15,0 C 10,4 C 16,9 C 70 % 50 % 84 % 1019,1 hPa 0,0 l/m 0,6 km/h (0 Bft) W-NW 292 4,7 C 15,0 C 0,0 km/h (0 Bft)
30.05.2023 02:36 12,0 C 14,9 C 10,3 C 16,9 C 70 % 50 % 84 % 1019,1 hPa 0,0 l/m 0,8 km/h (0 Bft) N 360 4,6 C 14,9 C 0,0 km/h (0 Bft)
30.05.2023 02:34 12,0 C 14,9 C 10,4 C 16,9 C 70 % 50 % 84 % 1019,1 hPa 0,0 l/m 0,8 km/h (0 Bft) S 180 4,6 C 14,9 C 3,9 km/h (1 Bft)
30.05.2023 02:32 12,0 C 14,8 C 10,5 C 16,9 C 70 % 50 % 84 % 1019,1 hPa 0,0 l/m 0,6 km/h (0 Bft) N-NW 337 4,5 C 14,8 C 3,9 km/h (1 Bft)
30.05.2023 02:30 12,0 C 14,8 C 10,4 C 16,9 C 70 % 50 % 84 % 1019,1 hPa 0,0 l/m 0,5 km/h (0 Bft) N 360 4,5 C 14,8 C 2,4 km/h (1 Bft)
30.05.2023 02:28 12,1 C 14,9 C 10,4 C 17,0 C 70 % 50 % 84 % 1019,1 hPa 0,0 l/m 0,3 km/h (0 Bft) N-NW 337 4,6 C 14,9 C 3,9 km/h (1 Bft)
30.05.2023 02:26 12,1 C 14,9 C 10,4 C 17,0 C 70 % 50 % 84 % 1019,1 hPa 0,0 l/m 0,3 km/h (0 Bft) N-NO 22 4,6 C 14,9 C 3,9 km/h (1 Bft)
30.05.2023 02:24 12,1 C 15,0 C 10,6 C 17,0 C 69 % 50 % 84 % 1019,1 hPa 0,0 l/m 0,2 km/h (0 Bft) O-NO 67 4,7 C 15,0 C 0,0 km/h (0 Bft)
30.05.2023 02:22 12,2 C 15,2 C 10,8 C 17,0 C 69 % 50 % 84 % 1019,1 hPa 0,0 l/m 0,3 km/h (0 Bft) N-NW 337 4,8 C 15,2 C 2,4 km/h (1 Bft)
30.05.2023 02:20 12,2 C 15,4 C 11,0 C 17,0 C 69 % 49 % 84 % 1019,1 hPa 0,0 l/m 0,2 km/h (0 Bft) NO 45 4,7 C 15,4 C 2,4 km/h (1 Bft)
30.05.2023 02:18 12,2 C 15,4 C 10,9 C 17,1 C 69 % 49 % 84 % 1018,8 hPa 0,0 l/m 0,2 km/h (0 Bft) N-NO 22 4,7 C 15,4 C 0,0 km/h (0 Bft)
30.05.2023 02:16 12,2 C 15,4 C 10,9 C 17,1 C 69 % 49 % 84 % 1018,8 hPa 0,0 l/m 0,2 km/h (0 Bft) N-NO 22 4,7 C 15,4 C 0,0 km/h (0 Bft)
30.05.2023 02:14 12,3 C 15,5 C 11,1 C 17,1 C 69 % 49 % 84 % 1018,8 hPa 0,0 l/m 0,5 km/h (0 Bft) N-NW 337 4,8 C 15,5 C 0,0 km/h (0 Bft)
30.05.2023 02:12 12,3 C 15,6 C 11,3 C 17,1 C 69 % 49 % 84 % 1018,8 hPa 0,0 l/m 0,5 km/h (0 Bft) W-NW 292 4,9 C 15,6 C 0,0 km/h (0 Bft)
30.05.2023 02:10 12,3 C 15,7 C 11,6 C 17,1 C 69 % 49 % 84 % 1018,8 hPa 0,0 l/m 0,5 km/h (0 Bft) N-NO 22 5,0 C 15,7 C 2,4 km/h (1 Bft)
30.05.2023 02:08 12,4 C 15,7 C 12,4 C 17,2 C 69 % 49 % 84 % 1018,8 hPa 0,0 l/m 0,6 km/h (0 Bft) N-NW 337 5,0 C 15,7 C 2,4 km/h (1 Bft)
30.05.2023 02:06 12,5 C 15,8 C 12,5 C 17,2 C 69 % 49 % 84 % 1018,8 hPa 0,0 l/m 0,8 km/h (0 Bft) N 360 5,1 C 15,8 C 0,0 km/h (0 Bft)
30.05.2023 02:04 12,5 C 15,8 C 12,5 C 17,2 C 69 % 49 % 84 % 1018,8 hPa 0,0 l/m 1,0 km/h (0 Bft) N-NO 22 5,1 C 15,8 C 2,4 km/h (1 Bft)
30.05.2023 02:02 12,5 C 15,8 C 12,2 C 17,2 C 69 % 49 % 84 % 1018,8 hPa 0,0 l/m 1,1 km/h (1 Bft) NW 315 5,1 C 15,8 C 2,4 km/h (1 Bft)
30.05.2023 02:00 12,6 C 15,9 C 11,9 C 17,2 C 69 % 48 % 84 % 1018,8 hPa 0,0 l/m 1,0 km/h (0 Bft) N-NW 337 4,9 C 15,9 C 3,1 km/h (1 Bft)
30.05.2023 01:58 12,6 C 15,9 C 12,0 C 17,3 C 69 % 48 % 83 % 1018,9 hPa 0,0 l/m 1,1 km/h (1 Bft) NW 315 4,9 C 15,9 C 3,1 km/h (1 Bft)
30.05.2023 01:56 12,6 C 15,9 C 11,6 C 17,3 C 68 % 48 % 83 % 1018,9 hPa 0,0 l/m 1,0 km/h (0 Bft) N 360 4,9 C 15,9 C 3,4 km/h (1 Bft)
30.05.2023 01:54 12,6 C 15,8 C 11,6 C 17,3 C 68 % 49 % 83 % 1018,9 hPa 0,0 l/m 1,0 km/h (0 Bft) NW 315 5,1 C 15,8 C 3,4 km/h (1 Bft)
30.05.2023 01:52 12,6 C 15,9 C 11,2 C 17,4 C 68 % 48 % 83 % 1018,9 hPa 0,0 l/m 0,3 km/h (0 Bft) O-NO 67 4,9 C 15,9 C 2,7 km/h (1 Bft)
30.05.2023 01:50 12,6 C 16,0 C 11,2 C 17,4 C 68 % 48 % 83 % 1018,9 hPa 0,0 l/m 0,3 km/h (0 Bft) O-SO 112 5,0 C 16,0 C 0,0 km/h (0 Bft)
30.05.2023 01:48 12,7 C 16,1 C 11,6 C 17,5 C 68 % 48 % 83 % 1018,9 hPa 0,0 l/m 0,6 km/h (0 Bft) N 360 5,1 C 16,1 C 0,0 km/h (0 Bft)
30.05.2023 01:46 12,7 C 16,2 C 12,2 C 17,5 C 68 % 48 % 83 % 1018,9 hPa 0,0 l/m 0,5 km/h (0 Bft) N 360 5,2 C 16,2 C 0,0 km/h (0 Bft)
30.05.2023 01:44 12,7 C 16,3 C 12,5 C 17,4 C 68 % 48 % 83 % 1018,9 hPa 0,0 l/m 0,8 km/h (0 Bft) N-NW 337 5,3 C 16,3 C 0,0 km/h (0 Bft)
30.05.2023 01:42 12,9 C 16,3 C 12,8 C 17,5 C 68 % 48 % 83 % 1018,9 hPa 0,0 l/m 1,1 km/h (1 Bft) N-NW 337 5,3 C 16,3 C 0,0 km/h (0 Bft)
30.05.2023 01:40 12,9 C 16,4 C 12,9 C 17,5 C 68 % 48 % 83 % 1018,9 hPa 0,0 l/m 1,3 km/h (1 Bft) SW 225 5,4 C 16,4 C 4,1 km/h (1 Bft)
30.05.2023 01:38 13,0 C 16,4 C 13,2 C 17,5 C 67 % 48 % 83 % 1018,8 hPa 0,0 l/m 1,3 km/h (1 Bft) N-NO 22 5,4 C 16,4 C 4,1 km/h (1 Bft)
30.05.2023 01:36 13,0 C 16,5 C 13,1 C 17,5 C 67 % 48 % 83 % 1018,8 hPa 0,0 l/m 1,3 km/h (1 Bft) NW 315 5,5 C 16,5 C 3,9 km/h (1 Bft)
30.05.2023 01:34 13,1 C 16,5 C 12,8 C 17,5 C 66 % 48 % 83 % 1018,8 hPa 0,0 l/m 1,1 km/h (1 Bft) N 360 5,5 C 16,5 C 4,8 km/h (1 Bft)
30.05.2023 01:32 13,1 C 16,5 C 12,4 C 17,6 C 66 % 48 % 83 % 1018,8 hPa 0,0 l/m 1,1 km/h (1 Bft) N-NO 22 5,5 C 16,5 C 4,8 km/h (1 Bft)
30.05.2023 01:30 13,2 C 16,5 C 12,2 C 17,6 C 66 % 48 % 83 % 1018,8 hPa 0,0 l/m 1,3 km/h (1 Bft) N-NO 22 5,5 C 16,5 C 3,9 km/h (1 Bft)
30.05.2023 01:28 13,2 C 16,6 C 12,6 C 17,6 C 66 % 48 % 83 % 1018,8 hPa 0,0 l/m 1,1 km/h (1 Bft) N-NW 337 5,5 C 16,6 C 9,2 km/h (2 Bft)
30.05.2023 01:26 13,2 C 16,6 C 12,8 C 17,6 C 66 % 48 % 83 % 1018,8 hPa 0,0 l/m 1,0 km/h (0 Bft) N 360 5,5 C 16,6 C 4,1 km/h (1 Bft)
30.05.2023 01:24 13,2 C 16,7 C 12,5 C 17,6 C 66 % 48 % 83 % 1018,8 hPa 0,0 l/m 1,1 km/h (1 Bft) N-NW 337 5,6 C 16,7 C 3,4 km/h (1 Bft)
30.05.2023 01:22 13,2 C 16,6 C 13,1 C 17,6 C 66 % 48 % 83 % 1018,8 hPa 0,0 l/m 1,3 km/h (1 Bft) NW 315 5,5 C 16,6 C 7,5 km/h (2 Bft)
30.05.2023 01:20 13,2 C 16,5 C 13,2 C 17,6 C 66 % 48 % 83 % 1018,8 hPa 0,0 l/m 1,6 km/h (1 Bft) O-NO 67 5,5 C 16,5 C 7,5 km/h (2 Bft)
30.05.2023 01:18 13,3 C 16,5 C 13,0 C 17,6 C 66 % 48 % 83 % 1018,9 hPa 0,0 l/m 1,6 km/h (1 Bft) N-NO 22 5,5 C 16,5 C 0,0 km/h (0 Bft)
30.05.2023 01:16 13,3 C 16,6 C 12,9 C 17,7 C 66 % 48 % 83 % 1018,9 hPa 0,0 l/m 1,8 km/h (1 Bft) NW 315 5,5 C 16,6 C 4,1 km/h (1 Bft)
30.05.2023 01:14 13,3 C 16,6 C 12,1 C 17,7 C 66 % 48 % 83 % 1018,9 hPa 0,0 l/m 1,8 km/h (1 Bft) NW 315 5,5 C 16,6 C 4,8 km/h (1 Bft)
30.05.2023 01:12 13,3 C 16,7 C 11,5 C 17,7 C 66 % 48 % 83 % 1018,9 hPa 0,0 l/m 1,4 km/h (1 Bft) N 360 5,6 C 16,7 C 6,5 km/h (2 Bft)
30.05.2023 01:10 13,3 C 16,6 C 11,2 C 17,7 C 66 % 48 % 83 % 1018,9 hPa 0,0 l/m 1,0 km/h (0 Bft) NO 45 5,5 C 16,6 C 6,5 km/h (2 Bft)
30.05.2023 01:08 13,4 C 16,5 C 11,3 C 17,7 C 66 % 48 % 82 % 1018,9 hPa 0,0 l/m 0,6 km/h (0 Bft) NW 315 5,5 C 16,5 C 6,8 km/h (2 Bft)
30.05.2023 01:06 13,4 C 16,4 C 11,0 C 17,8 C 66 % 48 % 82 % 1018,9 hPa 0,0 l/m 0,3 km/h (0 Bft) O-NO 67 5,4 C 16,4 C 2,7 km/h (1 Bft)
30.05.2023 01:04 13,5 C 16,4 C 11,1 C 17,8 C 65 % 48 % 82 % 1018,9 hPa 0,0 l/m 0,3 km/h (0 Bft) NO 45 5,4 C 16,4 C 0,0 km/h (0 Bft)
30.05.2023 01:02 13,5 C 16,5 C 11,4 C 17,8 C 65 % 48 % 82 % 1018,9 hPa 0,0 l/m 0,3 km/h (0 Bft) N-NO 22 5,5 C 16,5 C 0,0 km/h (0 Bft)
30.05.2023 01:00 13,5 C 16,5 C 11,6 C 17,8 C 65 % 48 % 82 % 1018,9 hPa 0,0 l/m 0,5 km/h (0 Bft) N-NO 22 5,5 C 16,5 C 0,0 km/h (0 Bft)
30.05.2023 00:58 13,5 C 16,4 C 11,8 C 17,9 C 65 % 48 % 82 % 1019,1 hPa 0,0 l/m 0,5 km/h (0 Bft) NO 45 5,4 C 16,4 C 2,7 km/h (1 Bft)
30.05.2023 00:56 13,6 C 16,3 C 11,9 C 17,8 C 65 % 48 % 82 % 1019,1 hPa 0,0 l/m 0,5 km/h (0 Bft) N 360 5,3 C 16,3 C 2,7 km/h (1 Bft)
30.05.2023 00:54 13,6 C 16,3 C 12,1 C 17,8 C 65 % 48 % 82 % 1019,1 hPa 0,0 l/m 0,5 km/h (0 Bft) O 90 5,3 C 16,3 C 0,0 km/h (0 Bft)
30.05.2023 00:52 13,6 C 16,3 C 12,4 C 17,9 C 65 % 48 % 82 % 1019,1 hPa 0,0 l/m 0,6 km/h (0 Bft) N-NW 337 5,3 C 16,3 C 3,6 km/h (1 Bft)
30.05.2023 00:50 13,7 C 16,3 C 12,4 C 18,0 C 65 % 48 % 82 % 1019,1 hPa 0,0 l/m 1,0 km/h (0 Bft) N 360 5,3 C 16,3 C 3,6 km/h (1 Bft)
30.05.2023 00:48 13,7 C 16,3 C 12,1 C 18,0 C 64 % 48 % 82 % 1019,1 hPa 0,0 l/m 1,1 km/h (1 Bft) N-NW 337 5,3 C 16,3 C 6,5 km/h (2 Bft)
30.05.2023 00:46 13,7 C 16,4 C 11,9 C 18,0 C 64 % 48 % 82 % 1019,1 hPa 0,0 l/m 1,0 km/h (0 Bft) N-NW 337 5,4 C 16,4 C 2,4 km/h (1 Bft)
30.05.2023 00:44 13,8 C 16,4 C 11,6 C 18,0 C 64 % 48 % 82 % 1019,1 hPa 0,0 l/m 1,1 km/h (1 Bft) N-NW 337 5,4 C 16,4 C 3,1 km/h (1 Bft)
30.05.2023 00:42 13,8 C 16,3 C 11,5 C 18,0 C 64 % 48 % 82 % 1019,1 hPa 0,0 l/m 1,1 km/h (1 Bft) N-NW 337 5,3 C 16,3 C 3,6 km/h (1 Bft)
30.05.2023 00:40 13,8 C 16,2 C 11,3 C 18,0 C 64 % 48 % 82 % 1019,1 hPa 0,0 l/m 0,8 km/h (0 Bft) N 360 5,2 C 16,2 C 3,6 km/h (1 Bft)
30.05.2023 00:39 13,9 C 16,2 C 11,3 C 18,0 C 64 % 48 % 82 % 1019,1 hPa 0,0 l/m 0,5 km/h (0 Bft) O 90 5,2 C 16,2 C 5,8 km/h (2 Bft)
30.05.2023 00:36 13,9 C 16,2 C 10,6 C 18,0 C 64 % 48 % 82 % 1019,1 hPa 0,0 l/m 0,5 km/h (0 Bft) N-NW 337 5,2 C 16,2 C 2,9 km/h (1 Bft)
30.05.2023 00:34 13,9 C 16,2 C 10,2 C 18,1 C 64 % 47 % 82 % 1019,1 hPa 0,0 l/m 0,5 km/h (0 Bft) N-NO 22 4,9 C 16,2 C 2,9 km/h (1 Bft)
30.05.2023 00:32 14,0 C 16,2 C 10,2 C 18,1 C 63 % 47 % 82 % 1019,1 hPa 0,0 l/m 0,3 km/h (0 Bft) N-NO 22 4,9 C 16,2 C 0,0 km/h (0 Bft)
30.05.2023 00:30 14,0 C 16,2 C 10,2 C 18,1 C 63 % 47 % 81 % 1019,1 hPa 0,0 l/m 0,3 km/h (0 Bft) NO 45 4,9 C 16,2 C 3,9 km/h (1 Bft)
30.05.2023 00:28 14,3 C 16,3 C 10,8 C 18,3 C 63 % 47 % 81 % 1019,1 hPa 0,0 l/m 0,6 km/h (0 Bft) NO 45 5,0 C 16,3 C 3,9 km/h (1 Bft)
30.05.2023 00:26 14,3 C 16,3 C 10,8 C 18,3 C 63 % 47 % 81 % 1019,1 hPa 0,0 l/m 0,6 km/h (0 Bft) NO 45 5,0 C 16,3 C 3,9 km/h (1 Bft)
30.05.2023 00:24 14,3 C 16,3 C 10,8 C 18,3 C 63 % 47 % 81 % 1019,1 hPa 0,0 l/m 0,6 km/h (0 Bft) NO 45 5,0 C 16,3 C 3,9 km/h (1 Bft)
30.05.2023 00:22 14,3 C 16,3 C 10,8 C 18,3 C 63 % 47 % 81 % 1019,1 hPa 0,0 l/m 0,6 km/h (0 Bft) NO 45 5,0 C 16,3 C 3,9 km/h (1 Bft)
30.05.2023 00:20 14,3 C 16,3 C 10,8 C 18,3 C 63 % 47 % 81 % 1019,1 hPa 0,0 l/m 0,6 km/h (0 Bft) NO 45 5,0 C 16,3 C 4,8 km/h (1 Bft)
30.05.2023 00:18 14,5 C 16,3 C 10,9 C 18,3 C 63 % 47 % 81 % 1019,1 hPa 0,0 l/m 0,5 km/h (0 Bft) O-NO 67 5,0 C 16,3 C 4,8 km/h (1 Bft)
30.05.2023 00:16 14,5 C 16,4 C 11,3 C 18,4 C 63 % 47 % 81 % 1019,1 hPa 0,0 l/m 0,3 km/h (0 Bft) O-NO 67 5,1 C 16,4 C 3,9 km/h (1 Bft)
30.05.2023 00:14 14,5 C 16,5 C 11,4 C 18,4 C 63 % 47 % 81 % 1019,1 hPa 0,0 l/m 0,6 km/h (0 Bft) NO 45 5,2 C 16,5 C 3,6 km/h (1 Bft)
30.05.2023 00:12 14,6 C 16,6 C 11,7 C 18,5 C 63 % 46 % 81 % 1019,1 hPa 0,0 l/m 0,6 km/h (0 Bft) N-NO 22 4,9 C 16,6 C 2,9 km/h (1 Bft)
30.05.2023 00:10 14,6 C 16,7 C 11,6 C 18,5 C 63 % 46 % 81 % 1019,1 hPa 0,0 l/m 0,5 km/h (0 Bft) O-SO 112 5,0 C 16,7 C 0,0 km/h (0 Bft)
30.05.2023 00:08 14,7 C 16,6 C 11,4 C 18,5 C 63 % 46 % 81 % 1019,1 hPa 0,0 l/m 0,6 km/h (0 Bft) NW 315 4,9 C 16,6 C 0,0 km/h (0 Bft)
30.05.2023 00:06 14,7 C 16,6 C 11,2 C 18,5 C 63 % 46 % 81 % 1019,1 hPa 0,0 l/m 0,8 km/h (0 Bft) O-NO 67 4,9 C 16,6 C 6,0 km/h (2 Bft)
30.05.2023 00:04 14,7 C 16,6 C 11,2 C 18,5 C 63 % 46 % 81 % 1019,1 hPa 0,0 l/m 0,5 km/h (0 Bft) NO 45 4,9 C 16,6 C 6,0 km/h (2 Bft)
30.05.2023 00:02 14,7 C 16,8 C 11,4 C 18,6 C 63 % 46 % 80 % 1019,1 hPa 0,0 l/m 0,6 km/h (0 Bft) O-NO 67 5,1 C 16,8 C 3,1 km/h (1 Bft)
30.05.2023 00:00 14,8 C 16,8 C 11,4 C 18,6 C 63 % 46 % 80 % 1019,1 hPa 0,0 l/m 0,6 km/h (0 Bft) N-NW 337 5,1 C 16,8 C 3,9 km/h (1 Bft)
_ Min-Zeit 05:46 05:16 03:56 05:22 00:32 00:12 00:02 02:18 - 05:42 - - 04:00 05:16 05:56
Minimum _ 11,3 C 12,9 C 10,1 C 16,0 C 63 % 46 % 80 % 1018,8 hPa - 0,0 km/h (0 Bft) - - 4,0 C 12,9 C 0,0 km/h (0 Bft)
_ Max-Zeit 00:00 00:02 01:38 00:02 05:56 05:56 05:56 02:58 05:56 02:56 - - 01:24 00:02 01:28
Maximum _ 14,8 C 16,8 C 13,2 C 18,6 C 75 % 57 % 87 % 1019,4 hPa 0,0 l/m 1,9 km/h
NO (1 Bft)
- - 5,6 C 16,8 C 9,2 km/h
N-NW (2 Bft)
Durchschnitt _ 12,3 C 14,9 C 11,3 C 17,0 C 70 % 51 % 84 % 1019,0 hPa #0,0 l/m 0,4 km/h (0 Bft) N-NO - 4,9 C 14,9 C 1,7 km/h (1 Bft)